Theta_e
289 290 291 292 292 294 294 293 293 292 292 293 293 293 293 293 292 292 292 291 292 291
286 286 286 286 288 289 290 290 289 288 287 288 289 289 289 289 289 289 289 289 289 288
284 284 284 285 285 285 286 286 286 285 286 286 287 287 287 287 288 288 287 286 286 286
283 283 283 283 283 283 284 284 284 284 284 284 285 285 286 286 286 285 284 284 283 283
282 281 281 281 281 282 282 283 283 283 283 283 284 284 284 284 284 283 282 282 282 281
280 280 279 279 280 281 281 281 282 282 282 282 282 283 283 283 283 282 281 281 280 279
279 279 279 279 280 280 280 280 281 281 281 281 281 282 282 282 281 281 280 280 279 278
279 278 278 279 279 279 280 280 280 280 280 280 281 281 280 280 279 279 278 278 278 278
279 278 278 278 279 279 279 279 279 279 280 279 281 284 283 280 278 278 278 276 276 276
278 278 278 278 278 278 278 278 278 278 279 278 280 283 282 280 278 277 276 277 275 275
278 277 277 277 277 277 277 277 277 277 278 278 279 282 281 279 277 276 276 275 275 275
278 277 276 276 276 276 277 276 277 277 279 278 279 281 280 278 276 275 274 275 274 275
277 277 276 276 275 276 277 276 277 277 277 278 278 280 280 278 276 274 274 273 273 276
276 276 276 276 275 275 276 276 275 275 275 276 278 279 278 278 276 274 273 272 271 272
Wind_Speed
3 2 2 2 2 2 2 2 3 4 5 5 5 4 5 4 4 5 5 7 6 5
3 4 4 3 3 3 3 4 5 5 5 5 5 5 5 4 5 6 6 6 7 6
3 3 4 4 4 4 4 4 5 5 5 5 5 5 5 5 5 7 5 5 7 6
4 4 4 4 4 4 4 5 5 5 5 5 5 5 5 6 6 8 7 6 7 7
5 5 5 5 4 4 5 5 5 5 5 5 5 5 5 6 5 7 8 6 6 6
5 4 5 5 5 4 5 5 5 5 5 5 4 5 5 7 7 7 8 6 7 6
7 7 6 5 5 5 5 5 5 5 5 5 5 5 6 7 8 9 8 9 7 6
7 6 6 6 6 6 6 5 5 6 5 5 6 5 7 7 8 9 9 8 8 6
10 9 9 9 8 7 7 7 6 5 6 5 5 13 14 11 8 8 9 8 7 5
10 9 9 8 8 8 8 7 6 6 6 5 5 14 14 16 8 7 6 7 6 4
12 11 10 10 10 9 9 10 9 8 7 8 6 14 13 15 10 8 8 6 5 5
16 14 13 12 11 9 9 8 7 7 8 9 9 14 14 11 9 10 9 8 5 4
12 12 12 12 11 9 9 9 7 8 5 6 10 13 13 10 5 9 7 8 5 6
12 12 12 11 9 10 9 9 8 7 4 3 5 10 11 11 6 7 6 5 5 2
Wind_Direction
80 97 90 120 119 113 112 86 67 62 61 58 67 68 69 77 77 74 77 80 70 74
115 132 139 100 90 104 104 109 93 83 79 64 68 70 75 80 81 76 70 73 81 89
133 129 129 128 129 126 111 103 104 95 85 80 79 82 92 94 86 97 86 83 84 71
159 141 131 125 122 115 111 111 101 98 92 85 86 84 87 84 84 88 87 78 83 78
173 163 149 141 135 133 123 112 116 110 104 100 93 98 100 105 97 103 98 90 87 85
176 170 161 155 151 140 133 131 123 118 114 108 103 99 91 102 102 96 93 87 86 81
181 184 177 163 157 153 149 136 125 120 124 121 112 108 111 110 105 103 93 89 86 74
178 171 163 164 162 158 155 148 144 138 131 132 126 126 114 111 108 111 104 95 93 70
173 173 179 175 170 162 152 150 147 146 143 140 137 140 132 122 123 126 127 127 118 110
176 179 178 169 167 169 165 153 152 146 139 130 133 143 141 132 123 123 120 133 136 111
176 179 172 172 178 171 167 166 162 158 152 141 148 151 148 137 126 124 126 119 116 125
180 176 174 179 176 169 166 165 163 158 157 152 143 160 156 146 138 137 134 127 113 129
173 172 176 175 172 169 167 165 162 162 154 154 141 158 168 159 148 145 146 138 116 131
169 170 168 162 163 162 161 155 152 151 132 128 134 151 163 163 162 157 151 151 145 130